Location: Observatoire de Paris
(48.8363°N, 2.3365°E)
Time: 20:39:04
(UTC+01:00)

BUGSAT 1 - Pass Details

Date: 25 September 2021
Orbit: 557 x 602 km, 98.1° (Epoch: 19 October)

Event Time Altitude Azimuth Distance (km) Brightness Sun altitude
Rises 05:23:56 0° 18° (NNE) 2,807 ? -13.5°
Reaches altitude 10° 05:26:10 10° 25° (NNE) 1,895 ? -13.1°
Maximum altitude 05:30:09 47° 100° (E) 760 ? -12.5°
Drops below altitude 10° 05:34:01 10° 175° (S) 1,855 ? -11.9°
Sets 05:36:12 0° 181° (S) 2,741 ? -11.5°
